Bedford Range, Nova Scotia

1:26 AM AST on November 19, 2017 (GMT -0400)
Bedford Range

Weather History for CABR - February, 2014

Change the Weather History Date:

Saturday, February 22, 2014

  Actual Average Record
Temperature  
Mean Temperature 41 °F -  
Max Temperature 50 °F - - ()
Min Temperature 32 °F - - ()
Degree Days  
Heating Degree Days 24    
Moisture  
Dew Point 32 °F    
Average Humidity 71    
Maximum Humidity 96    
Minimum Humidity 37    
Precipitation  
Precipitation 0.60 in - - ()
Sea Level Pressure  
Sea Level Pressure 29.81 in    
Wind  
Wind Speed 7 mph ()    
Max Wind Speed 15 mph    
Max Gust Speed 26 mph    
Visibility 7.3 miles    
Events      
T = Trace of Precipitation, MM = Missing Value Source: Averaged Metar Reports

Daily Weather History Graph

Daily Weather History Graph

Search for Another Location

Airport or City:

Trip Planner

Search our weather history database for the weather conditions in past years. The results will help you decide how hot, cold, wet, or windy it might be!

Date:

Astronomy

Feb. 22, 2014 Rise Set
Actual Time 7:04 AM AST 5:52 PM AST
Civil Twilight 6:34 AM AST 6:22 PM AST
Nautical Twilight 6:00 AM AST 6:56 PM AST
Astronomical Twilight 5:26 AM AST 7:30 PM AST
Moon 1:00 AM AST (2/22) 10:53 AM AST (2/22)
Length of Visible Light 11h 47m
Length of Day
10h 48m
Waning Gibbous, 50% of the Moon is Illuminated
Feb 22
Waning Gibbous
Feb 22
Last Quarter
Mar 1
New
Mar 8
First Quarter
Mar 16
Full

Hourly Weather History & Observations

Time (AST) Temp. Windchill Dew Point Humidity Pressure Visibility Wind Dir Wind Speed Gust Speed Precip Events Conditions
12:00 AM 34.5 °F 25.7 °F 31.8 °F 90% 30.01 in 9.0 mi ESE 12.7 mph 26.5 mph N/A   Unknown
1:00 AM 34.5 °F 25.3 °F 32.5 °F 92% 29.94 in 10.0 mi ESE 13.8 mph 26.5 mph N/A   Unknown
2:00 AM 35.2 °F 25.8 °F 33.3 °F 92% 29.86 in 10.0 mi ESE 15.0 mph 24.2 mph 0.09 in   Unknown
3:00 AM 37.0 °F 32.4 °F 35.1 °F 93% 29.88 in 6.0 mi ESE 5.8 mph - 0.24 in   Unknown
4:00 AM 39.4 °F 34.5 °F 37.8 °F 94% 29.77 in 6.0 mi ESE 6.9 mph - 0.16 in   Unknown
5:00 AM 39.7 °F 37.6 °F 38.5 °F 95% 29.73 in 4.0 mi ESE 3.5 mph - 0.04 in   Unknown
6:00 AM 44.6 °F 41.4 °F 43.5 °F 96% 29.71 in 4.0 mi South 5.8 mph - 0.05 in   Unknown
7:00 AM 43.2 °F 41.5 °F 41.9 °F 95% 29.71 in 4.0 mi SSE 3.5 mph - N/A   Unknown
8:00 AM 39.9 °F - 38.8 °F 96% 29.72 in 1.0 mi NNE 2.3 mph - N/A   Unknown
9:00 AM 43.2 °F 39.0 °F 39.4 °F 86% 29.76 in 1.0 mi WNW 6.9 mph - N/A   Unknown
10:00 AM 44.6 °F 39.7 °F 37.9 °F 77% 29.80 in 1.0 mi WNW 9.2 mph - 0.02 in   Unknown
11:00 AM 43.9 °F 39.3 °F 32.5 °F 64% 29.82 in 8.0 mi WNW 8.1 mph - N/A   Unknown
12:00 PM 46.6 °F - 29.7 °F 52% 29.83 in 9.0 mi NW 11.5 mph 19.6 mph N/A   Unknown
1:00 PM 48.7 °F - 27.7 °F 44% 29.81 in 9.0 mi WNW 6.9 mph - N/A   Unknown
2:00 PM 50.5 °F - 24.8 °F 37% 29.81 in 9.0 mi WSW 8.1 mph - N/A   Unknown
3:00 PM 50.7 °F - 25.3 °F 37% 29.79 in 9.0 mi West 8.1 mph - N/A   Unknown
4:00 PM 49.6 °F - 27.1 °F 42% 29.80 in 9.0 mi SSW 9.2 mph - N/A   Unknown
5:00 PM 48.4 °F - 27.1 °F 44% 29.80 in 9.0 mi SSW 3.5 mph - N/A   Unknown
6:00 PM 44.6 °F 41.4 °F 25.2 °F 46% 29.79 in 9.0 mi South 5.8 mph - N/A   Unknown
7:00 PM 41.5 °F 39.6 °F 25.2 °F 52% 29.81 in 10.0 mi SSE 3.5 mph - N/A   Unknown
8:00 PM 37.8 °F 35.3 °F 26.8 °F 65% 29.82 in 10.0 mi South 3.5 mph - N/A   Unknown
9:00 PM 32.4 °F 27.9 °F 27.1 °F 81% 29.83 in 10.0 mi SSE 4.6 mph - N/A   Unknown
10:00 PM 33.4 °F 30.4 °F 26.1 °F 74% 29.82 in 9.0 mi SSE 3.5 mph - N/A   Unknown
11:00 PM 36.5 °F 32.7 °F 24.4 °F 62% 29.81 in 10.0 mi South 4.6 mph - N/A   Unknown